TimePST,TemperatureF,Dew PointF,Humidity,Sea Level PressureIn,VisibilityMPH,Wind Direction,Wind SpeedMPH,Gust SpeedMPH,PrecipitationIn,Events,Conditions,WindDirDegrees,DateUTC
12:51 AM,45.0,36.0,71,30.06,10.0,Calm,Calm,-,N/A,,Clear,0,2014-02-05 08:51:00
1:51 AM,45.0,36.0,71,30.06,10.0,ENE,4.6,-,N/A,,Clear,60,2014-02-05 09:51:00
2:51 AM,45.0,35.1,68,30.08,10.0,Calm,Calm,-,N/A,,Clear,0,2014-02-05 10:51:00
3:51 AM,43.0,36.0,76,30.07,10.0,Calm,Calm,-,N/A,,Clear,0,2014-02-05 11:51:00
4:51 AM,44.1,35.1,71,30.08,10.0,NE,5.8,-,N/A,,Clear,50,2014-02-05 12:51:00
5:51 AM,44.1,34.0,68,30.08,10.0,NE,6.9,-,N/A,,Clear,50,2014-02-05 13:51:00
6:51 AM,45.0,33.1,63,30.11,10.0,NE,5.8,-,N/A,,Clear,50,2014-02-05 14:51:00
7:51 AM,46.9,32.0,56,30.11,10.0,NE,9.2,-,N/A,,Scattered Clouds,40,2014-02-05 15:51:00
8:51 AM,51.1,33.1,50,30.13,10.0,ENE,8.1,-,N/A,,Clear,60,2014-02-05 16:51:00
9:51 AM,55.9,34.0,44,30.15,10.0,NNE,3.5,-,N/A,,Clear,30,2014-02-05 17:51:00
10:51 AM,57.0,37.9,49,30.12,9.0,Calm,Calm,-,N/A,,Clear,0,2014-02-05 18:51:00
11:51 AM,57.9,42.1,56,30.10,10.0,WSW,11.5,-,N/A,,Clear,240,2014-02-05 19:51:00
12:51 PM,59.0,43.0,55,30.07,10.0,WSW,12.7,-,N/A,,Clear,250,2014-02-05 20:51:00
1:51 PM,57.9,44.1,60,30.06,10.0,WSW,11.5,-,N/A,,Clear,250,2014-02-05 21:51:00
2:51 PM,57.9,39.0,49,30.04,10.0,West,10.4,-,N/A,,Clear,270,2014-02-05 22:51:00
3:51 PM,57.0,37.0,47,30.04,10.0,WSW,8.1,-,N/A,,Clear,250,2014-02-05 23:51:00
4:51 PM,55.9,39.9,55,30.03,10.0,West,5.8,-,N/A,,Clear,280,2014-02-06 00:51:00
5:51 PM,54.0,41.0,62,30.04,10.0,West,3.5,-,N/A,,Clear,270,2014-02-06 01:51:00
6:51 PM,55.0,42.1,62,30.04,10.0,Calm,Calm,-,N/A,,Clear,0,2014-02-06 02:51:00
7:51 PM,54.0,45.0,72,30.05,10.0,East,5.8,-,N/A,,Partly Cloudy,100,2014-02-06 03:51:00
8:51 PM,51.1,39.9,66,30.05,10.0,East,6.9,-,N/A,,Clear,80,2014-02-06 04:51:00
9:51 PM,51.1,37.9,61,30.04,10.0,NE,6.9,-,N/A,,Clear,50,2014-02-06 05:51:00
10:51 PM,50.0,37.9,63,30.05,10.0,NNE,3.5,-,N/A,,Clear,30,2014-02-06 06:51:00
11:51 PM,50.0,37.9,63,30.06,10.0,Calm,Calm,-,N/A,,Clear,0,2014-02-06 07:51:00